Regional Weather Roundup
Issued by NWS

Home | Current Version | Previous Version | Text Only | Print | Product List | Glossary Off
Versions: 1 2 3 4 5 6 7 8 9 10 11 12 13 14 15 16 17 18 19 20 21 22 23 24 25 26 27 28 29 30 31 32 33 34 35 36 37 38 39 40 41 42 43 44 45 46 47 48 49 50

000
ASUS45 KBOI 250210
RWRID

IDAHO REGIONAL WEATHER ROUNDUP
NATIONAL WEATHER SERVICE BOISE ID
800 PM MDT TUE MAY 24 2016

NOTE: "FAIR" INDICATES FEW OR NO CLOUDS BELOW 12000 FEET
WITH NO SIGNIFICANT WEATHER AND/OR OBSTRUCTIONS TO VISIBILITY

IDZ012-014-250300-
SOUTHWEST IDAHO


CITY           SKY/WX    TMP DP  RH WIND       PRES   REMARKS
BOISE          MOSUNNY   68  32  26 NW18      29.82R
CALDWELL       PTSUNNY   69  37  30 NW7       29.83R
MOUNTAIN HOME  MOSUNNY   71  38  30 NW17      29.82R
$$

IDZ016-017-250300-
SOUTHCENTRAL IDAHO


CITY           SKY/WX    TMP DP  RH WIND       PRES   REMARKS
BURLEY         MOCLDY    60  39  45 VRB3      29.83R
JEROME         MOCLDY    64  37  36 SW8       29.84R
TWIN FALLS     CLOUDY    62  36  37 W7        29.84S
$$

IDZ019>023-250300-
SOUTHEAST IDAHO


CITY           SKY/WX    TMP DP  RH WIND       PRES   REMARKS
IDAHO FALLS    CLOUDY    53  39  59 SE16      29.87R
POCATELLO      TSTM      54  41  61 S23G33    29.88R
REXBURG        LGT RAIN  52  39  61 W12G21    29.89R
$$

IDZ006-010-011-018-031-032-250300-
CENTRAL IDAHO MOUNTAINS


CITY           SKY/WX    TMP DP  RH WIND       PRES   REMARKS
MCCALL         PTSUNNY   52  35  52 NW8       29.89R
HAILEY         PTCLDY    54  41  62 W7        29.89R
STANLEY          N/A     52  32  46 N9        29.92R
SALMON         CLOUDY    57  36  44 N6        29.86R
CHALLIS        CLOUDY    53  38  56 N7        29.89R
$$

IDZ002-004-006-007-026-250300-
NORTHERN IDAHO


CITY           SKY/WX    TMP DP  RH WIND       PRES   REMARKS
LEWISTON       SUNNY     67  44  43 NE5       29.89S
LOWELL           N/A     57  52  83 CALM      29.91S
COEUR D`ALENE  SUNNY     63  46  55 MISG      29.88R
MULLAN PASS    CLOUDY    41  40  96 CALM      29.96S
$$



USA.gov is the U.S. government's official web portal to all federal, state and local government web resources and services.